[[{"header":{"parameterUnit":"m.s-1","parameterCategory":1,"la1":30.2991,"la2":30.254,"lo1":-89.0895,"lo2":-89.0444,"dy":0.0017,"dx":0.0017,"nx":28,"ny":28,"refTime":"2025-09-03T09:00:00:Z","depth":0,"parameterNumber":2,"parameterNumberName":"U-component_of_WINDS"},"data":[0,0,0,0,0,0,0,0,0,0,0,0,0,0,0,0,0,0,0,0,0,0,0,0,0,0,0,0,0,0,0,0,0,0,0,0,0,0,0,0,0,0,0,0,0,0,0,0,0,0,0,0,0,0,0,0,0,0,-2.091,-2.091,0,-2.0876,-2.0875,-2.0875,-2.0802,-2.0801,-2.08,-2.0798,-2.0764,-2.0765,-2.0765,0,0,0,0,0,0,0,0,0,0,0,0,0,-2.0917,-2.0917,-2.091,-2.091,-2.0909,-2.0876,-2.0875,-2.0875,-2.0803,-2.0801,-2.0799,-2.0798,-2.0764,-2.0765,-2.0765,0,0,0,0,0,0,0,0,0,0,0,0,0,-2.0901,-2.0917,-2.091,-2.0869,-2.0865,-2.0876,-2.0875,-2.0875,-2.0803,-2.0801,-2.0799,-2.0797,-2.0764,-2.0764,-2.0765,-2.0813,0,0,-2.0767,-2.0767,0,0,0,0,0,0,0,0,-2.0902,-2.0901,-2.0876,-2.0872,-2.0868,-2.0841,-2.0865,-2.0854,-2.0804,-2.0827,-2.0798,-2.0796,-2.0792,-2.079,-2.0788,-2.0811,-2.081,-2.0767,-2.0768,-2.0768,-2.0768,0,0,0,0,0,0,0,-2.0903,-2.0902,-2.0896,-2.0875,-2.0871,-2.0854,-2.0849,-2.0863,-2.0822,-2.0825,-2.0819,-2.0816,-2.0789,-2.0788,-2.0787,-2.0809,-2.0767,-2.0768,-2.0768,-2.0769,-2.0873,-2.0875,0,0,0,0,0,0,-2.091,-2.0904,-2.0898,-2.0895,-2.088,-2.0855,-2.085,-2.0852,-2.0822,-2.0815,-2.0818,-2.0813,-2.0788,-2.0786,-2.0785,-2.084,-2.0768,-2.0769,-2.0769,-2.087,-2.0873,-2.0876,0,0,0,0,0,0,-2.0911,-2.091,-2.0899,-2.0898,-2.0895,-2.0857,-2.086,-2.0852,-2.0851,-2.0817,-2.0809,-2.0824,-2.0786,-2.0784,-2.0807,-2.0838,-2.0769,-2.077,-2.0867,-2.0871,-2.0874,-2.0949,0,0,0,0,0,0,-2.0911,-2.0911,-2.0928,-2.0899,-2.0896,-2.092,-2.0862,-2.0853,-2.0852,-2.0845,-2.082,-2.0814,-2.0784,-2.0806,-2.0808,-2.0837,-2.077,-2.0864,-2.0869,-2.0873,-2.0944,-2.0955,-2.0965,0,0,0,0,0,-2.0912,-2.095,-2.0929,-2.0928,-2.0916,-2.0922,-2.092,-2.0885,-2.0855,-2.0872,-2.0851,-2.0815,-2.0835,-2.0809,-2.081,-2.0841,-2.0862,-2.0868,-2.0873,-2.0939,-2.0953,-2.0964,0,0,0,0,0,0,-2.0983,-2.0945,-2.0921,-2.0952,-2.0941,-2.091,-2.093,-2.09,-2.0897,-2.0891,-2.0848,-2.0843,-2.0871,-2.0858,-2.0831,-2.0887,-2.0843,-2.0849,-2.0893,-2.0906,-2.0916,-2.0918,-2.0771,0,0,0,0,0,-2.1002,-2.101,-2.0977,-2.1007,-2.1003,-2.0968,-2.0969,-2.0943,-2.093,-2.0925,-2.0905,-2.0894,-2.0898,-2.0902,-2.0903,-2.0943,-2.0937,-2.0965,-2.0975,-2.0983,-2.0988,-2.101,-2.1022,-2.0893,-2.0893,-2.0893,0,0,-2.1042,-2.1022,-2.103,-2.1021,-2.1009,-2.1019,-2.0964,-2.0976,-2.0983,-2.0927,-2.0947,-2.0933,-2.0918,-2.095,-2.0962,-2.094,-2.1023,-2.099,-2.0997,-2.0997,-2.1016,-2.1028,-2.1039,-2.0897,-2.0896,-2.0895,0,0,-2.1119,-2.1105,-2.1128,-2.1119,-2.1102,-2.1079,-2.1085,-2.106,-2.1048,-2.1068,-2.1026,-2.1035,-2.1042,-2.1034,-2.1031,-2.1109,-2.1076,-2.1111,-2.1164,-2.1185,-2.1195,-2.1204,-2.1232,-2.1242,-2.1116,-2.1117,-2.1117,0,-2.117,-2.1182,-2.1145,-2.116,-2.1158,-2.1108,-2.1133,-2.1125,-2.1111,-2.1111,-2.1086,-2.1096,-2.1083,-2.1112,-2.1131,-2.1131,-2.1137,-2.1112,-2.1197,-2.1205,-2.1213,-2.1239,-2.1249,-2.1121,-2.112,-2.112,-2.112,0,-2.1246,-2.1256,-2.1277,-2.1264,-2.1265,-2.1285,-2.1252,-2.1257,-2.1233,-2.1213,-2.1235,-2.1218,-2.1216,-2.1222,-2.1197,-2.1248,-2.1235,-2.1204,-2.1159,-2.123,-2.1254,-2.1263,-2.1127,-2.1125,-2.1124,-2.1123,0,0,-2.1363,-2.1332,-2.134,-2.1335,-2.1315,-2.1322,-2.1341,-2.1339,-2.1345,-2.1338,-2.1353,-2.1362,-2.1334,-2.1331,-2.1306,-2.1325,-2.1388,-2.1292,-2.1291,-2.131,-2.1445,-2.1467,-2.1479,-2.1368,-2.137,-2.1371,-2.1446,0,-2.1435,-2.1464,-2.1432,-2.1469,-2.1478,-2.1433,-2.145,-2.144,-2.1423,-2.143,-2.1411,-2.1418,-2.1381,-2.1379,-2.1396,-2.1377,-2.1415,-2.1372,-2.1382,-2.1383,-2.1385,-2.1491,-2.1514,-2.1585,-2.1455,-2.1457,-2.1458,0,-2.1521,-2.1518,-2.1555,-2.1535,-2.1537,-2.1553,-2.1549,-2.1556,-2.1545,-2.1532,-2.153,-2.15,-2.1519,-2.1478,-2.1503,-2.1475,-2.1478,-2.147,-2.1472,-2.147,-2.1423,-2.1491,-2.1607,-2.1617,-2.1472,-2.1471,-2.147,0,-2.1602,-2.1608,-2.1631,-2.1628,-2.1604,-2.1617,-2.1608,-2.1595,-2.1597,-2.1595,-2.1596,-2.1597,-2.1597,-2.1599,-2.1571,-2.1543,-2.1601,-2.1556,-2.1591,-2.1592,-2.1603,-2.1602,-2.1719,-2.1608,-2.1607,-2.1607,-2.1607,0,-2.1684,-2.1708,-2.1667,-2.1681,-2.1708,-2.1674,-2.1701,-2.1688,-2.1678,-2.169,-2.1652,-2.1664,-2.1627,-2.1636,-2.1615,-2.164,-2.164,-2.1631,-2.1624,-2.1633,-2.1634,-2.1633,-2.1627,-2.161,-2.1609,-2.1609,-2.1608,0,-2.1778,-2.1751,-2.1774,-2.1751,-2.1746,-2.1767,-2.1748,-2.1761,-2.1743,-2.1758,-2.176,-2.1732,-2.1741,-2.1714,-2.1719,-2.1705,-2.1741,-2.1728,-2.1744,-2.174,-2.1775,-2.1772,-2.1894,-2.1909,-2.1789,-2.179,-2.1791,0,-2.183,-2.1848,-2.1828,-2.1833,-2.1826,-2.1835,-2.1837,-2.1805,-2.1809,-2.18,-2.1814,-2.182,-2.1822,-2.1839,-2.182,-2.1824,-2.1809,-2.1852,-2.1809,-2.1818,-2.1809,-2.1808,-2.181,-2.186,-2.1862,-2.1863,-2.1864,0,-2.1927,-2.1914,-2.1918,-2.1918,-2.1922,-2.1921,-2.1917,-2.1924,-2.189,-2.1896,-2.1905,-2.1907,-2.1913,-2.1919,-2.1919,-2.1911,-2.1883,-2.1878,-2.1886,-2.1894,-2.1903,-2.1898,-2.1767,-2.1875,-2.1874,-2.1873,-2.1872,-2.1872,-2.2001,-2.2016,-2.2004,-2.201,-2.2005,-2.2003,-2.2014,-2.1999,-2.2005,-2.2006,-2.1988,-2.2001,-2.1993,-2.199,-2.1986,-2.1996,-2.1976,-2.1988,-2.1991,-2.1994,-2.1999,-2.1903,-2.1996,-2.1996,-2.1996,-2.1995,-2.1995,0,-2.2095,-2.2087,-2.2093,-2.2089,-2.2095,-2.2068,-2.2064,-2.207,-2.2082,-2.2077,-2.2081,-2.2092,-2.2099,-2.2082,-2.2086,-2.2098,-2.2085,-2.2101,-2.2098,-2.2097,-2.2017,-2.2009,-2.2111,-2.2111,-2.2111,-2.2111,-2.2111,-2.2111,-2.2145,-2.2168,-2.2154,-2.2175,-2.2166,-2.2178,-2.2177,-2.2176,-2.2172,-2.2186,-2.2191,-2.218,-2.2171,-2.2175,-2.2181,-2.2176,-2.2179,-2.2199,-2.219,-2.2114,-2.2103,-2.2092,-2.2084,-2.22,-2.2201,-2.2269,-2.2269,-2.227]},{"header":{"parameterUnit":"m.s-1","parameterCategory":1,"la1":30.2991,"la2":30.254,"lo1":-89.0895,"lo2":-89.0444,"dy":0.0017,"dx":0.0017,"nx":28,"ny":28,"refTime":"2025-09-03T09:00:00:Z","depth":0,"parameterNumber":3,"parameterNumberName":"V-component_of_WINDS"},"data":[0,0,0,0,0,0,0,0,0,0,0,0,0,0,0,0,0,0,0,0,0,0,0,0,0,0,0,0,0,0,0,0,0,0,0,0,0,0,0,0,0,0,0,0,0,0,0,0,0,0,0,0,0,0,0,0,0,0,2.4953,2.4953,0,2.4959,2.4959,2.4959,2.5014,2.5015,2.5017,2.5018,2.5017,2.5016,2.5014,0,0,0,0,0,0,0,0,0,0,0,0,0,2.4985,2.4984,2.4953,2.4953,2.4953,2.4959,2.4959,2.4959,2.5014,2.5015,2.5017,2.5018,2.5017,2.5016,2.5014,0,0,0,0,0,0,0,0,0,0,0,0,0,2.4979,2.4984,2.4953,2.4981,2.4984,2.4959,2.4959,2.4959,2.5013,2.5015,2.5017,2.5019,2.5018,2.5016,2.5014,2.496,0,0,2.5008,2.5007,0,0,0,0,0,0,0,0,2.4979,2.4977,2.4977,2.4979,2.4982,2.4988,2.497,2.4959,2.5013,2.5002,2.5018,2.502,2.5005,2.5004,2.5001,2.496,2.496,2.5008,2.5007,2.5006,2.5005,0,0,0,0,0,0,0,2.4979,2.4977,2.4955,2.4977,2.498,2.4992,2.4994,2.4968,2.4991,2.5003,2.5007,2.5007,2.5007,2.5002,2.5001,2.496,2.5008,2.5006,2.5005,2.5004,2.4874,2.4872,0,0,0,0,0,0,2.4977,2.4977,2.4955,2.4955,2.4986,2.499,2.4991,2.4984,2.4992,2.4995,2.5005,2.501,2.5005,2.5003,2.5001,2.4937,2.5006,2.5004,2.5003,2.4877,2.4874,2.4871,0,0,0,0,0,0,2.4977,2.4974,2.4955,2.4968,2.4966,2.4987,2.4978,2.4983,2.4978,2.4994,2.4998,2.4997,2.5006,2.5004,2.497,2.4938,2.5003,2.5001,2.4879,2.4876,2.4873,2.481,0,0,0,0,0,0,2.4978,2.4974,2.4955,2.4967,2.4965,2.4925,2.4976,2.4981,2.4976,2.4981,2.4987,2.499,2.5008,2.4973,2.4968,2.4936,2.5,2.4882,2.4878,2.4874,2.4814,2.4804,2.4796,0,0,0,0,0,2.4979,2.4935,2.4953,2.495,2.4942,2.4923,2.4922,2.4945,2.4973,2.4953,2.4963,2.4989,2.4943,2.4969,2.4964,2.4931,2.4884,2.4879,2.4874,2.4819,2.4806,2.4796,0,0,0,0,0,0,2.4916,2.4937,2.4958,2.4917,2.4918,2.4932,2.4908,2.4932,2.4923,2.4928,2.4956,2.4957,2.4918,2.4922,2.495,2.4879,2.4918,2.4912,2.4878,2.4866,2.4857,2.4856,2.4998,0,0,0,0,0,2.4899,2.4883,2.4902,2.4865,2.4864,2.4886,2.4879,2.4897,2.4898,2.4898,2.4906,2.4904,2.4889,2.4878,2.4865,2.4816,2.4817,2.4791,2.4782,2.4774,2.4767,2.474,2.4729,2.4855,2.4855,2.4855,0,0,2.486,2.487,2.4858,2.4852,2.4855,2.4837,2.4886,2.4864,2.485,2.4894,2.4863,2.4868,2.4868,2.4826,2.4808,2.4828,2.4734,2.4768,2.4762,2.4759,2.4734,2.4722,2.4711,2.4851,2.4852,2.4852,0,0,2.4781,2.4788,2.4757,2.476,2.4764,2.4779,2.4772,2.4783,2.4789,2.4758,2.4791,2.4774,2.4748,2.4746,2.4742,2.4664,2.4687,2.4659,2.4608,2.4582,2.4572,2.4563,2.4533,2.4522,2.4653,2.4652,2.4652,0,2.4732,2.4708,2.4738,2.4714,2.471,2.4752,2.472,2.472,2.4719,2.4714,2.4738,2.4706,2.4709,2.4667,2.4648,2.4644,2.4634,2.4657,2.4571,2.4563,2.4555,2.4526,2.4515,2.4649,2.4649,2.465,2.465,0,2.4647,2.4629,2.4604,2.4604,2.4597,2.4569,2.4593,2.4583,2.4602,2.4614,2.4582,2.4588,2.4576,2.4568,2.4586,2.4528,2.454,2.4567,2.4606,2.4539,2.4512,2.4502,2.4644,2.4645,2.4646,2.4647,0,0,2.4525,2.4544,2.4534,2.4535,2.4544,2.4529,2.4504,2.4495,2.4484,2.4483,2.446,2.4438,2.4463,2.4458,2.4477,2.4454,2.4389,2.4483,2.4484,2.4463,2.4323,2.43,2.4288,2.4406,2.4404,2.4403,2.4322,0,2.4447,2.4405,2.4432,2.4385,2.4368,2.4409,2.4386,2.4387,2.4398,2.4384,2.4396,2.4379,2.4415,2.4412,2.4391,2.4401,2.436,2.4408,2.4382,2.4381,2.4378,2.4274,2.4251,2.4174,2.4312,2.431,2.4309,0,2.435,2.4346,2.4298,2.431,2.4304,2.4283,2.4277,2.4265,2.4267,2.4277,2.4272,2.4296,2.427,2.4311,2.4274,2.4305,2.4297,2.43,2.4298,2.4294,2.4339,2.4265,2.4151,2.4138,2.4294,2.4295,2.4296,0,2.4264,2.4247,2.4216,2.4215,2.4229,2.4213,2.4218,2.4223,2.4216,2.4211,2.4206,2.4197,2.4191,2.4182,2.4202,2.4231,2.4161,2.4205,2.4166,2.4165,2.4147,2.4147,2.4027,2.4146,2.4146,2.4146,2.4147,0,2.4172,2.414,2.4177,2.4157,2.4123,2.4154,2.4118,2.4127,2.4131,2.4113,2.4147,2.4128,2.4158,2.4142,2.4158,2.4123,2.4121,2.4126,2.413,2.4121,2.412,2.4114,2.4118,2.4143,2.4144,2.4145,2.4145,0,2.4068,2.4092,2.406,2.4077,2.4081,2.4054,2.4068,2.4049,2.4064,2.404,2.4036,2.4057,2.404,2.4061,2.4045,2.4056,2.4008,2.4021,2.4007,2.401,2.3969,2.3972,2.3838,2.3821,2.3954,2.3952,2.3951,0,2.4007,2.3984,2.3999,2.399,2.3993,2.3978,2.3972,2.4002,2.3993,2.3995,2.3976,2.3963,2.3953,2.3924,2.3936,2.3924,2.3936,2.389,2.3934,2.3925,2.3932,2.3932,2.3929,2.388,2.3878,2.3877,2.3876,0,2.3894,2.3908,2.3898,2.3893,2.3885,2.3881,2.388,2.3871,2.3902,2.389,2.3875,2.3867,2.3853,2.3838,2.3829,2.3832,2.3858,2.3863,2.3852,2.3842,2.3834,2.3835,2.398,2.3864,2.3866,2.3866,2.3867,2.3867,2.3808,2.3789,2.3797,2.3785,2.3788,2.3787,2.377,2.3784,2.3772,2.3763,2.3781,2.376,2.3764,2.3756,2.3756,2.3739,2.3758,2.3744,2.374,2.3735,2.3728,2.3839,2.3737,2.3738,2.3738,2.3738,2.3739,0,2.3696,2.3703,2.3693,2.3691,2.3681,2.371,2.3711,2.37,2.3682,2.3684,2.3675,2.3656,2.3642,2.3655,2.3643,2.3626,2.3638,2.3622,2.3622,2.3622,2.3712,2.3721,2.3613,2.3613,2.3613,2.3613,2.3613,2.3613,2.3636,2.3605,2.3619,2.359,2.3597,2.3579,2.3576,2.3574,2.3576,2.3554,2.3544,2.3553,2.3559,2.3548,2.3536,2.354,2.3533,2.3512,2.352,2.3603,2.3616,2.3627,2.3635,2.3511,2.3511,2.343,2.343,2.3429]}]]